Starlink 11146

operational
NORAD ID: 60729 Int'l Des: 2024-152 Owner: SPXS Country: US Constellation: starlink
LEOCIRCULAR

Starlink 11146について

説明を読み込み中...

リアルタイム位置

3D地球を読み込み中...

次回通過

高度履歴

Altitude vs Time

uPlot chart will show altitude changes over time

軌道要素

1 60729U 24152K 26037.84794609 -.00002254 00000-0 -13757-4 0 9995
2 60729 53.1592 268.0865 0001247 149.9921 210.1169 15.69701770 84123
Epoch: Feb 6, 2026 • Age: 7 hours

現在のステータス

高度 375.3 km
速度 7.68 km/s
衛星直下点 -43.95°S, 27.34°E
打ち上げ日 Aug 28, 2024
運用期間 1.4 years
タイプ internet

技術仕様

分類 Payload
質量 960.00 kg
乾燥質量 910.00 kg
総質量 960.00 kg
長さ 0.30 m
直径 4.10 m
スパン 29.00 m
形状 Box + pan
製造者 SPXS
バスタイプ Starlink V2MD
フェーズステータス In Orbit
所有者/国 SPXS/US

大規模コンステレーション

Loading constellations...